カタログに戻る

NANOACE

運用中科学SSO
NORAD 42844·PAYLOAD·🇺🇸 United States

打ち上げ Jul 14, 2017 から Baikonur Cosmodrome

Loading…

次のパス (今後24時間)

TLE

最新Source: Space-Track

元期: Sep 14, 2026, 10:33 UTC

1 42844U 17042V   26257.44026628  .00009446  00000-0  36653-3 0  9999
2 42844  97.3801  70.4568 0005207  67.1378 293.0410 15.26306515501681

AllMySatでNANOACEをリアルタイム追跡

Download on the App Store